This is the latest recevied weather packets stored in our database for station/object BAGASKAR. If no packets are shown the sender has not sent any weather packets the latest 10 day(s).
| Time | Temp. | Humidity | Pressure | Rain* | Wind** | Luminosity | Snow |
|---|---|---|---|---|---|---|---|
| 1777933635 | 5° C | 100% | 1003.1 hPa | - | - | - | - |
| 1777932435 | 5° C | 100% | 1003.1 hPa | - | - | - | - |
| 1777931235 | 5° C | 100% | 1003.2 hPa | - | - | - | - |
| 1777930035 | 5° C | 100% | 1003.2 hPa | - | - | - | - |
| 1777928835 | 5° C | 100% | 1003.1 hPa | - | - | - | - |
| 1777927635 | 5° C | 100% | 1003.3 hPa | - | - | - | - |
| 1777926435 | 5.56° C | 100% | 1003.4 hPa | - | - | - | - |
| 1777925235 | 5.56° C | 100% | 1003.5 hPa | - | - | - | - |
| 1777924034 | 6.11° C | 100% | 1003.3 hPa | - | - | - | - |
| 1777922834 | 6.11° C | 100% | 1003.2 hPa | - | - | - | - |
| 1777921635 | 6.11° C | 100% | 1003.2 hPa | - | - | - | - |
| 1777920434 | 5.56° C | 100% | 1003.2 hPa | - | - | - | - |
| 1777919234 | 5.56° C | 100% | 1003.1 hPa | - | - | - | - |
| 1777918034 | 5.56° C | 100% | 1002.9 hPa | - | - | - | - |
| 1777916834 | 5.56° C | 100% | 1002.8 hPa | - | - | - | - |
| 1777915634 | 6.11° C | 100% | 1002.8 hPa | - | - | - | - |
| 1777914434 | 6.11° C | 100% | 1002.8 hPa | - | - | - | - |
| 1777913234 | 6.67° C | 100% | 1002.6 hPa | - | - | - | - |
| 1777912034 | 7.22° C | 100% | 1002.6 hPa | - | - | - | - |
| 1777910834 | 8.33° C | 100% | 1002.4 hPa | - | - | - | - |
| 1777909633 | 7.78° C | 100% | 1002.4 hPa | - | - | - | - |
| 1777908434 | 8.33° C | 100% | 1002.4 hPa | - | - | - | - |
| 1777907234 | 8.89° C | 100% | 1002.3 hPa | - | - | - | - |
| 1777906033 | 8.89° C | 100% | 1002.4 hPa | - | - | - | - |
| 1777904834 | 9.44° C | 100% | 1002.5 hPa | - | - | - | - |
* Rain since midnight (hover to see other rain measurements)
** Current wind speed in m/s (hover to see current wind gust speed)